Location: Nasgenstadt
(48.2786°N, 9.7553°E)
Time: 19:55:12
(UTC+02:00)

ISS - Pass Details

Date: 28 March 2017
Orbit: 399 x 409 km, 51.6° (Epoch: 29 March)

Event Time Altitude Azimuth Distance (km) Brightness Sun altitude
Rises 22:32:15 0° 253° (WSW) 2,311 0.4 -26.1°
Reaches altitude 10° 22:34:19 10° 256° (WSW) 1,456 -0.6 -26.3°
Enters shadow 22:34:37 12° 256° (WSW) 1,334 -0.8 -26.4°
